When you browse on this site, cookies collect data to enhance your experience and personalize the content and advertising you see.
Visit our Privacy Policy to learn more. By continuing to use the site, you agree to this use of cookies and data.

Hourly Weather Sacapa

Today, 8 July, Wednesday

Time Temperature Precipitation Wind Pressure Humidity
00:00 +20°C° 0 mm 0 mps 697 mmHg 96%
01:00 +19°C° 0 mm 0 mps 697 mmHg 97%
02:00 +19°C° 0 mm 0 mps 697 mmHg 97%
03:00 +19°C° 0 mm 0 mps 696 mmHg 97%
04:00 +19°C° 0 mm 0 mps 696 mmHg 97%
05:00 +19°C° 0 mm 0 mps 696 mmHg 97%
06:00 +19°C° 0 mm 0 mps 696 mmHg 97%
07:00 +21°C° 0 mm 0 mps 697 mmHg 91%
08:00 +23°C° 0 mm 0 mps 697 mmHg 84%
09:00 +25°C° 0 mm 0 mps 698 mmHg 78%
10:00 +28°C° 0 mm 1 mps 698 mmHg 74%
11:00 +29°C° 0 mm 1 mps 698 mmHg 70%
12:00 +29°C° 0 mm 1 mps 698 mmHg 66%
13:00 +30°C° 0.1 mm 1 mps 697 mmHg 64%
14:00 +30°C° 0.1 mm 1 mps 696 mmHg 63%
15:00 +31°C° 0.1 mm 1 mps 696 mmHg 61%
16:00 +29°C° 0.3 mm 1 mps 696 mmHg 69%
17:00 +28°C° 0.3 mm 1 mps 696 mmHg 76%
18:00 +26°C° 0.3 mm 1 mps 696 mmHg 84%
19:00 +25°C° 0.2 mm 1 mps 696 mmHg 88%
20:00 +24°C° 0.2 mm 1 mps 696 mmHg 92%
21:00 +23°C° 0.2 mm 1 mps 697 mmHg 97%
22:00 +22°C° 0.1 mm 1 mps 697 mmHg 97%
23:00 +22°C° 0.1 mm 1 mps 697 mmHg 98%

Tomorrow, 9 July, Thursday

Time Temperature Precipitation Wind Pressure Humidity
00:00 +22°C° 0.1 mm 1 mps 696 mmHg 98%
01:00 +22°C° 0.2 mm 1 mps 696 mmHg 98%
02:00 +20°C° 0.2 mm 0 mps 696 mmHg 98%
03:00 +19°C° 0.2 mm 0 mps 695 mmHg 98%
04:00 +19°C° 0 mm 0 mps 695 mmHg 97%
05:00 +19°C° 0 mm 0 mps 696 mmHg 97%
06:00 +19°C° 0 mm 0 mps 696 mmHg 96%
07:00 +21°C° 0 mm 0 mps 696 mmHg 91%
08:00 +23°C° 0 mm 0 mps 697 mmHg 86%
09:00 +26°C° 0 mm 1 mps 697 mmHg 80%
10:00 +28°C° 0.1 mm 1 mps 697 mmHg 74%
11:00 +29°C° 0.1 mm 1 mps 697 mmHg 67%
12:00 +31°C° 0.1 mm 2 mps 697 mmHg 60%
13:00 +31°C° 0.2 mm 2 mps 697 mmHg 61%
14:00 +30°C° 0.2 mm 2 mps 696 mmHg 61%
15:00 +30°C° 0.2 mm 2 mps 696 mmHg 62%
16:00 +29°C° 0.1 mm 2 mps 696 mmHg 70%
17:00 +27°C° 0.1 mm 2 mps 696 mmHg 77%
18:00 +26°C° 0.1 mm 1 mps 695 mmHg 85%
19:00 +25°C° 0 mm 1 mps 696 mmHg 89%
20:00 +23°C° 0 mm 1 mps 696 mmHg 93%
21:00 +22°C° 0 mm 1 mps 697 mmHg 96%
22:00 +22°C° 0 mm 1 mps 697 mmHg 97%
23:00 +22°C° 0 mm 1 mps 697 mmHg 97%

Day after tomorrow, 10 July, Friday

Time Temperature Precipitation Wind Pressure Humidity
00:00 +21°C° 0 mm 1 mps 697 mmHg 98%
01:00 +19°C° 0 mm 0 mps 696 mmHg 97%
02:00 +19°C° 0 mm 0 mps 696 mmHg 97%
03:00 +19°C° 0 mm 0 mps 696 mmHg 96%
04:00 +19°C° 0.1 mm 0 mps 696 mmHg 96%
05:00 +19°C° 0.1 mm 0 mps 696 mmHg 95%
06:00 +19°C° 0.1 mm 0 mps 696 mmHg 94%
07:00 +20°C° 0.3 mm 0 mps 697 mmHg 92%
08:00 +21°C° 0.3 mm 0 mps 697 mmHg 90%
09:00 +22°C° 0.3 mm 0 mps 698 mmHg 89%
10:00 +22°C° 0.4 mm 0 mps 698 mmHg 87%
11:00 +23°C° 0.4 mm 0 mps 698 mmHg 86%
12:00 +24°C° 0.4 mm 0 mps 698 mmHg 85%
13:00 +24°C° 0.6 mm 0 mps 697 mmHg 84%
14:00 +26°C° 0.6 mm 1 mps 697 mmHg 83%
15:00 +27°C° 0.6 mm 1 mps 696 mmHg 82%
16:00 +26°C° 1.3 mm 1 mps 696 mmHg 86%
17:00 +25°C° 1.3 mm 1 mps 696 mmHg 91%
18:00 +24°C° 1.3 mm 1 mps 696 mmHg 95%
19:00 +21°C° 0.9 mm 0 mps 697 mmHg 96%
20:00 +21°C° 0.9 mm 0 mps 697 mmHg 97%
21:00 +20°C° 0.9 mm 0 mps 697 mmHg 97%
22:00 +20°C° 0.2 mm 0 mps 697 mmHg 97%
23:00 +20°C° 0.2 mm 0 mps 697 mmHg 98%

11 July, Saturday

Time Temperature Precipitation Wind Pressure Humidity
00:00 +19°C° 0.2 mm 0 mps 697 mmHg 98%
01:00 +19°C° 0 mm 0 mps 697 mmHg 98%
02:00 +19°C° 0 mm 0 mps 697 mmHg 98%
03:00 +19°C° 0 mm 0 mps 696 mmHg 98%
04:00 +19°C° 0 mm 0 mps 696 mmHg 98%
05:00 +19°C° 0 mm 0 mps 696 mmHg 98%
06:00 +19°C° 0 mm 0 mps 696 mmHg 98%
07:00 +23°C° 0 mm 1 mps 697 mmHg 92%
08:00 +24°C° 0 mm 1 mps 698 mmHg 87%
09:00 +26°C° 0 mm 1 mps 698 mmHg 81%
10:00 +28°C° 0 mm 1 mps 698 mmHg 73%
11:00 +29°C° 0 mm 1 mps 698 mmHg 64%
12:00 +31°C° 0 mm 2 mps 698 mmHg 56%
13:00 +31°C° 0.1 mm 2 mps 697 mmHg 56%
14:00 +30°C° 0.1 mm 2 mps 697 mmHg 56%
15:00 +30°C° 0.1 mm 3 mps 696 mmHg 56%
16:00 +29°C° 0.2 mm 2 mps 696 mmHg 65%
17:00 +27°C° 0.2 mm 2 mps 696 mmHg 74%
18:00 +25°C° 0.2 mm 1 mps 696 mmHg 83%
19:00 +24°C° 0.1 mm 1 mps 696 mmHg 87%
20:00 +22°C° 0.1 mm 1 mps 697 mmHg 91%
21:00 +21°C° 0.1 mm 1 mps 697 mmHg 95%
22:00 +21°C° 0 mm 1 mps 697 mmHg 96%
23:00 +19°C° 0 mm 0 mps 697 mmHg 96%

12 July, Sunday

Time Temperature Precipitation Wind Pressure Humidity
00:00 +18°C° 0 mm 0 mps 697 mmHg 96%
01:00 +18°C° 0 mm 0 mps 697 mmHg 95%
02:00 +18°C° 0 mm 0 mps 696 mmHg 94%
03:00 +18°C° 0 mm 0 mps 696 mmHg 94%
04:00 +17°C° 0 mm 0 mps 696 mmHg 94%
05:00 +17°C° 0 mm 0 mps 696 mmHg 95%
06:00 +17°C° 0 mm 0 mps 696 mmHg 95%
07:00 +20°C° 0 mm 0 mps 697 mmHg 88%
08:00 +22°C° 0 mm 0 mps 697 mmHg 81%
09:00 +26°C° 0 mm 1 mps 698 mmHg 75%
10:00 +27°C° 0 mm 1 mps 698 mmHg 70%
11:00 +29°C° 0 mm 1 mps 698 mmHg 64%
12:00 +30°C° 0 mm 1 mps 698 mmHg 59%
13:00 +30°C° 0.1 mm 1 mps 697 mmHg 58%
14:00 +30°C° 0.1 mm 2 mps 696 mmHg 57%
15:00 +30°C° 0.1 mm 2 mps 696 mmHg 56%
16:00 +28°C° 0.3 mm 2 mps 696 mmHg 65%
17:00 +27°C° 0.3 mm 2 mps 696 mmHg 75%
18:00 +25°C° 0.3 mm 1 mps 696 mmHg 85%
19:00 +24°C° 0.4 mm 1 mps 697 mmHg 89%
20:00 +22°C° 0.4 mm 1 mps 697 mmHg 93%
21:00 +21°C° 0.4 mm 1 mps 697 mmHg 96%
22:00 +21°C° 0 mm 1 mps 697 mmHg 97%
23:00 +21°C° 0 mm 1 mps 697 mmHg 97%

13 July, Monday

Time Temperature Precipitation Wind Pressure Humidity
00:00 +19°C° 0 mm 0 mps 697 mmHg 97%
01:00 +18°C° 0 mm 0 mps 697 mmHg 97%
02:00 +18°C° 0 mm 0 mps 696 mmHg 96%
03:00 +18°C° 0 mm 0 mps 696 mmHg 96%
04:00 +18°C° 0 mm 0 mps 696 mmHg 96%
05:00 +18°C° 0 mm 0 mps 696 mmHg 96%
06:00 +18°C° 0 mm 0 mps 696 mmHg 95%
07:00 +20°C° 0 mm 0 mps 697 mmHg 89%
08:00 +22°C° 0 mm 0 mps 698 mmHg 82%
09:00 +26°C° 0 mm 1 mps 698 mmHg 75%
10:00 +28°C° 0 mm 1 mps 698 mmHg 70%
11:00 +29°C° 0 mm 1 mps 699 mmHg 65%
12:00 +31°C° 0 mm 1 mps 699 mmHg 59%
13:00 +31°C° 0.4 mm 1 mps 698 mmHg 60%
14:00 +31°C° 0.4 mm 1 mps 697 mmHg 61%
15:00 +30°C° 0.4 mm 1 mps 697 mmHg 62%
16:00 +28°C° 1.1 mm 1 mps 697 mmHg 72%
17:00 +27°C° 1.1 mm 1 mps 697 mmHg 82%
18:00 +25°C° 1.1 mm 1 mps 697 mmHg 91%
19:00 +24°C° 1 mm 1 mps 697 mmHg 93%
20:00 +23°C° 1 mm 1 mps 697 mmHg 95%
21:00 +22°C° 1 mm 1 mps 698 mmHg 96%
22:00 +22°C° 0.1 mm 1 mps 698 mmHg 97%
23:00 +21°C° 0.1 mm 1 mps 698 mmHg 97%
Show more